| time (UTC) | temp F | wind direction | speed knots | gust knots | rain 1hr in | rain 24hr in | rain mn in | humidity % | barometer mb |
| 20260510060721 | 73 | 140 | 0.9 | 2.6 | 0.00 | 0.01 | 0.00 | 77 | 1011.2 |
| 20260510060213 | 73 | 140 | 0.9 | 2.6 | 0.00 | 0.01 | 0.00 | 77 | 1011.2 |
| 20260510055707 | 74 | 140 | 0.9 | 2.6 | 0.00 | 0.01 | 0.00 | 77 | 1011.1 |
| 20260510055201 | 74 | 140 | 0.9 | 2.6 | 0.00 | 0.01 | 0.00 | 77 | 1011.1 |
| 20260510054655 | 74 | 140 | 0.9 | 1.7 | 0.00 | 0.01 | 0.00 | 77 | 1011.1 |
| 20260510054420 | 74 | 140 | 0.9 | 1.7 | 0.00 | 0.01 | 0.00 | 77 | 1011.1 |
| 20260510054307 | 74 | 140 | 0.9 | 1.7 | 0.00 | 0.01 | 0.00 | 77 | 1011.1 |
| 20260510053146 | 74 | 140 | 0.9 | 2.6 | 0.00 | 0.01 | 0.00 | 77 | 1011.1 |
| 20260510052646 | 74 | 140 | 0.9 | 2.6 | 0.00 | 0.01 | 0.00 | 77 | 1011.2 |
| 20260510052146 | 74 | 140 | 0.9 | 2.6 | 0.00 | 0.01 | 0.00 | 77 | 1011.2 |
| 20260510051919 | 74 | 140 | 0.9 | 2.6 | 0.00 | 0.01 | 0.00 | 77 | 1011.4 |
| 20260510051417 | 75 | 140 | 0.9 | 2.6 | 0.00 | 0.01 | 0.00 | 77 | 1011.2 |
| 20260510050917 | 75 | 141 | 0.0 | 1.7 | 0.00 | 0.01 | 0.00 | 77 | 1011.1 |
| 20260510050147 | 75 | 141 | 0.9 | 1.7 | 0.00 | 0.01 | 0.00 | 77 | 1011.1 |
| 20260510045644 | 75 | 141 | 0.9 | 2.6 | 0.00 | 0.01 | 0.01 | 77 | 1011.0 |
| 20260510045144 | 75 | 141 | 0.9 | 2.6 | 0.00 | 0.01 | 0.01 | 77 | 1011.0 |
| 20260510044642 | 75 | 141 | 0.9 | 1.7 | 0.00 | 0.01 | 0.01 | 77 | 1011.0 |
| 20260510044143 | 76 | 141 | 0.9 | 2.6 | 0.00 | 0.01 | 0.01 | 77 | 1011.0 |
| 20260510043916 | 76 | 141 | 0.0 | 2.6 | 0.00 | 0.01 | 0.01 | 77 | 1011.1 |
| 20260510043140 | 76 | 142 | 0.0 | 0.0 | 0.00 | 0.01 | 0.01 | 76 | 1011.1 |
| 20260510042639 | 76 | 142 | 0.0 | 0.0 | 0.00 | 0.01 | 0.01 | 76 | 1011.0 |
| 20260510042139 | 76 | 142 | 0.0 | 0.0 | 0.00 | 0.01 | 0.01 | 76 | 1010.9 |
| 20260510041638 | 77 | 142 | 0.0 | 0.0 | 0.00 | 0.01 | 0.01 | 76 | 1010.8 |
| 20260510041140 | 77 | 142 | 0.0 | 0.0 | 0.00 | 0.01 | 0.01 | 76 | 1010.9 |
| 20260510040639 | 77 | 142 | 0.0 | 0.0 | 0.00 | 0.01 | 0.01 | 76 | 1010.7 |
| 20260510040140 | 77 | 142 | 0.0 | 0.0 | 0.00 | 0.01 | 0.01 | 76 | 1010.7 |
| 20260510035640 | 77 | 142 | 0.0 | 0.0 | 0.00 | 0.01 | 0.01 | 76 | 1010.6 |
| 20260510035140 | 77 | 142 | 0.0 | 0.0 | 0.00 | 0.01 | 0.01 | 76 | 1010.6 |
| 20260510034912 | 78 | 142 | 0.0 | 0.0 | 0.00 | 0.01 | 0.01 | 75 | 1010.5 |
| 20260510034139 | 78 | 142 | 0.0 | 0.0 | 0.00 | 0.01 | 0.01 | 76 | 1010.5 |
| 20260510033916 | 78 | 142 | 0.0 | 0.0 | 0.00 | 0.01 | 0.01 | 75 | 1010.4 |
| 20260510033639 | 78 | 142 | 0.0 | 0.0 | 0.00 | 0.01 | 0.01 | 75 | 1010.5 |
| 20260510032639 | 78 | 142 | 0.0 | 0.0 | 0.00 | 0.01 | 0.01 | 75 | 1010.5 |
| 20260510032139 | 78 | 142 | 0.0 | 0.0 | 0.00 | 0.01 | 0.01 | 75 | 1010.4 |
| 20260510031639 | 78 | 142 | 0.0 | 0.0 | 0.00 | 0.01 | 0.01 | 75 | 1010.4 |
| 20260510031410 | 78 | 142 | 0.0 | 0.0 | 0.00 | 0.01 | 0.01 | 75 | 1010.4 |
| 20260510030635 | 79 | 142 | 0.0 | 0.0 | 0.00 | 0.01 | 0.01 | 75 | 1010.2 |
| 20260510030135 | 79 | 142 | 0.0 | 0.9 | 0.00 | 0.01 | 0.01 | 75 | 1010.2 |
| 20260510025628 | 79 | 142 | 0.0 | 3.5 | 0.00 | 0.01 | 0.01 | 75 | 1010.1 |
| 20260510025123 | 79 | 142 | 0.9 | 3.5 | 0.00 | 0.01 | 0.01 | 75 | 1010.0 |
| 20260510024617 | 79 | 142 | 1.7 | 3.5 | 0.00 | 0.01 | 0.01 | 75 | 1009.9 |
| 20260510024111 | 79 | 142 | 1.7 | 3.5 | 0.00 | 0.01 | 0.01 | 75 | 1009.8 |
| 20260510023605 | 79 | 140 | 1.7 | 4.3 | 0.00 | 0.01 | 0.01 | 75 | 1009.9 |
| 20260510023058 | 79 | 140 | 1.7 | 4.3 | 0.00 | 0.01 | 0.01 | 75 | 1009.7 |
| 20260510022553 | 80 | 150 | 1.7 | 4.3 | 0.00 | 0.01 | 0.01 | 74 | 1009.7 |
| 20260510022318 | 80 | 142 | 1.7 | 3.5 | 0.00 | 0.01 | 0.01 | 73 | 1009.7 |
| 20260510021541 | 80 | 135 | 1.7 | 3.5 | 0.00 | 0.01 | 0.01 | 73 | 1009.6 |
| 20260510021306 | 80 | 134 | 2.6 | 4.3 | 0.00 | 0.01 | 0.01 | 72 | 1009.6 |
| 20260510020755 | 81 | 153 | 1.7 | 5.2 | 0.00 | 0.01 | 0.01 | 71 | 1009.5 |
| 20260510020630 | 80 | 134 | 1.7 | 5.2 | 0.00 | 0.01 | 0.01 | 72 | 1009.6 |
| 20260510015517 | 81 | 146 | 0.9 | 2.6 | 0.00 | 0.01 | 0.01 | 70 | 1009.5 |
| 20260510015012 | 82 | 146 | 0.9 | 2.6 | 0.00 | 0.01 | 0.01 | 70 | 1009.4 |
| 20260510014505 | 82 | 146 | 0.9 | 2.6 | 0.00 | 0.01 | 0.01 | 69 | 1009.4 |
| 20260510013959 | 82 | 146 | 0.0 | 0.0 | 0.00 | 0.01 | 0.01 | 68 | 1009.3 |
| 20260510013455 | 83 | 146 | 0.0 | 0.0 | 0.00 | 0.01 | 0.01 | 68 | 1009.2 |
| 20260510013450 | 83 | 146 | 0.0 | 0.0 | 0.00 | 0.01 | 0.01 | 68 | 1009.2 |
| 20260510012712 | 83 | 146 | 0.0 | 0.0 | 0.00 | 0.01 | 0.01 | 68 | 1009.1 |
| 20260510011935 | 83 | 146 | 0.0 | 0.0 | 0.00 | 0.01 | 0.01 | 67 | 1009.1 |
| 20260510011429 | 83 | 146 | 0.0 | 0.0 | 0.00 | 0.01 | 0.01 | 67 | 1009.0 |
| 20260510011156 | 83 | 146 | 0.0 | 0.0 | 0.00 | 0.01 | 0.01 | 67 | 1009.0 |
| 20260510010918 | 83 | 146 | 0.9 | 1.7 | 0.00 | 0.01 | 0.01 | 67 | 1009.0 |
| 20260510005911 | 83 | 146 | 1.7 | 4.3 | 0.00 | 0.01 | 0.01 | 66 | 1009.4 |
| 20260510005637 | 84 | 146 | 1.7 | 6.1 | 0.00 | 0.01 | 0.01 | 66 | 1009.0 |
| 20260510004859 | 84 | 144 | 2.6 | 6.1 | 0.00 | 0.01 | 0.01 | 66 | 1008.9 |
| 20260510004353 | 84 | 127 | 2.6 | 6.1 | 0.00 | 0.01 | 0.01 | 65 | 1008.8 |
| 20260510003846 | 84 | 144 | 3.5 | 6.1 | 0.00 | 0.01 | 0.01 | 65 | 1008.8 |
| 20260510003613 | 84 | 123 | 2.6 | 6.1 | 0.00 | 0.01 | 0.01 | 65 | 1008.7 |
| 20260510002835 | 84 | 157 | 2.6 | 6.1 | 0.00 | 0.01 | 0.01 | 64 | 1008.8 |
| 20260510002329 | 85 | 140 | 2.6 | 5.2 | 0.00 | 0.01 | 0.01 | 64 | 1008.7 |
| 20260510001824 | 85 | 144 | 2.6 | 6.1 | 0.00 | 0.01 | 0.01 | 64 | 1008.7 |
| 20260510001317 | 85 | 152 | 2.6 | 6.1 | 0.00 | 0.01 | 0.01 | 63 | 1008.6 |
| 20260510000811 | 85 | 146 | 2.6 | 6.1 | 0.00 | 0.01 | 0.01 | 63 | 1008.5 |
| 20260510000311 | 85 | 136 | 2.6 | 6.1 | 0.00 | 0.01 | 0.01 | 62 | 1008.5 |
| 20260510000304 | 85 | 151 | 2.6 | 7.0 | 0.00 | 0.01 | 0.01 | 62 | 1008.4 |
| 20260509235253 | 85 | 153 | 2.6 | 7.0 | 0.00 | 0.01 | 0.01 | 61 | 1008.4 |
| 20260509234747 | 85 | 140 | 2.6 | 6.1 | 0.00 | 0.01 | 0.01 | 61 | 1008.4 |
| 20260509234241 | 85 | 145 | 1.7 | 6.1 | 0.00 | 0.01 | 0.01 | 61 | 1008.3 |
| 20260509233735 | 86 | 67 | 1.7 | 5.2 | 0.00 | 0.01 | 0.01 | 60 | 1008.2 |
| 20260509233229 | 86 | 121 | 1.7 | 7.0 | 0.00 | 0.01 | 0.01 | 60 | 1008.2 |
| 20260509232955 | 86 | 171 | 1.7 | 7.0 | 0.00 | 0.01 | 0.01 | 60 | 1008.2 |
| 20260509232217 | 86 | 72 | 2.6 | 7.8 | 0.00 | 0.01 | 0.01 | 60 | 1008.1 |
| 20260509231710 | 86 | 122 | 1.7 | 7.8 | 0.00 | 0.01 | 0.01 | 59 | 1008.2 |
| 20260509231204 | 86 | 355 | 1.7 | 5.2 | 0.00 | 0.01 | 0.01 | 59 | 1008.2 |
| 20260509230659 | 86 | 145 | 2.6 | 6.1 | 0.00 | 0.01 | 0.01 | 58 | 1008.2 |
| 20260509230420 | 87 | 134 | 2.6 | 7.0 | 0.00 | 0.01 | 0.01 | 57 | 1008.2 |
| 20260509230255 | 86 | 120 | 2.6 | 6.1 | 0.00 | 0.01 | 0.01 | 58 | 1008.2 |
| 20260509225141 | 87 | 86 | 2.6 | 7.0 | 0.00 | 0.01 | 0.01 | 56 | 1008.2 |
| 20260509224635 | 87 | 78 | 2.6 | 7.8 | 0.00 | 0.01 | 0.01 | 53 | 1008.2 |
| 20260509224129 | 87 | 116 | 2.6 | 7.8 | 0.00 | 0.01 | 0.01 | 51 | 1008.1 |
| 20260509223854 | 87 | 87 | 2.6 | 7.0 | 0.00 | 0.01 | 0.01 | 51 | 1008.3 |
| 20260509223117 | 87 | 83 | 2.6 | 7.8 | 0.00 | 0.01 | 0.01 | 50 | 1008.1 |
| 20260509222611 | 87 | 15 | 3.5 | 7.8 | 0.00 | 0.01 | 0.01 | 50 | 1008.0 |
| 20260509222106 | 87 | 119 | 3.5 | 7.8 | 0.00 | 0.01 | 0.01 | 48 | 1008.0 |
| 20260509221559 | 87 | 73 | 3.5 | 7.0 | 0.00 | 0.01 | 0.01 | 49 | 1008.0 |
| 20260509221053 | 87 | 42 | 2.6 | 6.1 | 0.00 | 0.01 | 0.01 | 49 | 1007.8 |
| 20260509220547 | 86 | 145 | 2.6 | 6.1 | 0.00 | 0.01 | 0.01 | 51 | 1007.8 |
| 20260509220041 | 86 | 120 | 1.7 | 5.2 | 0.00 | 0.01 | 0.01 | 51 | 1007.7 |
| 20260509215535 | 86 | 72 | 0.9 | 4.3 | 0.00 | 0.01 | 0.01 | 53 | 1007.8 |
| 20260509215029 | 86 | 149 | 0.0 | 3.5 | 0.00 | 0.01 | 0.01 | 53 | 1008.0 |
| 20260509214524 | 85 | 160 | 0.9 | 5.2 | 0.00 | 0.01 | 0.01 | 53 | 1008.0 |
| 20260509214018 | 85 | 161 | 0.9 | 5.2 | 0.00 | 0.01 | 0.01 | 53 | 1008.1 |
| 20260509213512 | 85 | 144 | 1.7 | 7.8 | 0.00 | 0.01 | 0.01 | 54 | 1008.3 |
| 20260509213006 | 84 | 156 | 2.6 | 7.8 | 0.00 | 0.01 | 0.01 | 53 | 1008.3 |
| 20260509212458 | 84 | 167 | 2.6 | 6.1 | 0.00 | 0.01 | 0.01 | 52 | 1008.6 |
| 20260509211953 | 84 | 144 | 3.5 | 10.4 | 0.00 | 0.01 | 0.01 | 52 | 1008.7 |
| 20260509211718 | 84 | 195 | 3.5 | 10.4 | 0.00 | 0.01 | 0.01 | 51 | 1008.9 |
| 20260509210941 | 84 | 141 | 3.5 | 10.4 | 0.00 | 0.01 | 0.01 | 54 | 1008.8 |
| 20260509210435 | 83 | 96 | 4.3 | 10.4 | 0.00 | 0.01 | 0.01 | 54 | 1008.8 |
| 20260509205929 | 84 | 92 | 3.5 | 10.4 | 0.00 | 0.01 | 0.01 | 56 | 1008.9 |
| 20260509205423 | 83 | 148 | 3.5 | 8.7 | 0.00 | 0.01 | 0.01 | 55 | 1008.9 |
| 20260509204918 | 83 | 88 | 5.2 | 12.2 | 0.00 | 0.01 | 0.01 | 53 | 1008.8 |
| 20260509204416 | 83 | 198 | 5.2 | 12.2 | 0.00 | 0.01 | 0.01 | 54 | 1009.0 |
| 20260509203917 | 85 | 184 | 3.5 | 9.6 | 0.00 | 0.01 | 0.01 | 57 | 1009.1 |
| 20260509203416 | 86 | 132 | 4.3 | 10.4 | 0.00 | 0.01 | 0.01 | 57 | 1009.1 |
| 20260509202917 | 87 | 151 | 4.3 | 14.8 | 0.00 | 0.01 | 0.01 | 58 | 1009.1 |
| 20260509202417 | 88 | 82 | 3.5 | 14.8 | 0.00 | 0.01 | 0.01 | 58 | 1009.2 |
| 20260509201922 | 91 | 111 | 4.3 | 14.8 | 0.00 | 0.01 | 0.01 | 56 | 1009.3 |
| 20260509201917 | 89 | 23 | 4.3 | 14.8 | 0.00 | 0.01 | 0.01 | 58 | 1009.1 |
| 20260509200916 | 93 | 344 | 3.5 | 9.6 | 0.00 | 0.01 | 0.01 | 53 | 1009.3 |
| 20260509200417 | 95 | 5 | 2.6 | 9.6 | 0.00 | 0.01 | 0.01 | 51 | 1009.3 |
| 20260509195911 | 96 | 329 | 0.9 | 4.3 | 0.00 | 0.01 | 0.01 | 51 | 1009.3 |
| 20260509195434 | 97 | 215 | 0.9 | 2.6 | 0.00 | 0.01 | 0.01 | 47 | 1009.0 |
| 20260509195426 | 96 | 215 | 0.9 | 2.6 | 0.00 | 0.01 | 0.01 | 49 | 1009.2 |
| 20260509194411 | 98 | 215 | 0.9 | 3.5 | 0.00 | 0.01 | 0.01 | 47 | 1009.2 |
| 20260509193912 | 97 | 215 | 0.9 | 7.0 | 0.00 | 0.01 | 0.01 | 46 | 1009.3 |
| 20260509193411 | 97 | 171 | 0.9 | 7.0 | 0.00 | 0.01 | 0.01 | 48 | 1009.2 |
| 20260509192911 | 96 | 200 | 0.9 | 4.3 | 0.00 | 0.01 | 0.01 | 48 | 1009.3 |
| 20260509192413 | 96 | 190 | 1.7 | 5.2 | 0.00 | 0.01 | 0.01 | 48 | 1009.3 |
| 20260509191913 | 96 | 321 | 1.7 | 5.2 | 0.00 | 0.01 | 0.01 | 49 | 1009.4 |
| 20260509191413 | 96 | 166 | 1.7 | 4.3 | 0.00 | 0.01 | 0.01 | 49 | 1009.5 |
| 20260509190911 | 95 | 150 | 0.9 | 3.5 | 0.00 | 0.01 | 0.01 | 50 | 1009.6 |
| 20260509190413 | 95 | 205 | 0.9 | 3.5 | 0.00 | 0.01 | 0.01 | 51 | 1009.5 |
| 20260509185910 | 95 | 322 | 1.7 | 5.2 | 0.00 | 0.01 | 0.01 | 52 | 1009.7 |
| 20260509185409 | 94 | 322 | 0.9 | 5.2 | 0.00 | 0.01 | 0.01 | 55 | 1009.7 |
| 20260509184905 | 93 | 165 | 0.9 | 1.7 | 0.00 | 0.01 | 0.01 | 54 | 1009.8 |
| 20260509184406 | 93 | 164 | 0.9 | 2.6 | 0.00 | 0.01 | 0.01 | 54 | 1009.9 |
| 20260509183906 | 93 | 151 | 0.9 | 4.3 | 0.00 | 0.01 | 0.01 | 55 | 1010.0 |
| 20260509183408 | 92 | 150 | 0.9 | 4.3 | 0.00 | 0.01 | 0.01 | 56 | 1010.1 |
| 20260509182905 | 91 | 326 | 0.9 | 2.6 | 0.00 | 0.01 | 0.01 | 59 | 1010.1 |
| 20260509182636 | 90 | 313 | 0.9 | 2.6 | 0.00 | 0.01 | 0.01 | 58 | 1010.1 |
| 20260509182136 | 90 | 313 | 0.9 | 2.6 | 0.00 | 0.01 | 0.01 | 59 | 1010.4 |
| 20260509181403 | 90 | 314 | 1.7 | 5.2 | 0.00 | 0.01 | 0.01 | 59 | 1010.6 |
| 20260509180905 | 89 | 341 | 0.9 | 5.2 | 0.00 | 0.01 | 0.01 | 65 | 1010.5 |
| 20260509180404 | 88 | 345 | 0.0 | 4.3 | 0.00 | 0.01 | 0.01 | 64 | 1010.4 |
| 20260509180129 | 88 | 242 | 0.9 | 1.7 | 0.00 | 0.01 | 0.01 | 63 | 1010.4 |
| 20260509175352 | 88 | 242 | 0.9 | 2.6 | 0.00 | 0.01 | 0.01 | 65 | 1010.5 |
| 20260509174846 | 88 | 240 | 0.0 | 2.6 | 0.00 | 0.01 | 0.01 | 64 | 1010.7 |
| 20260509174340 | 87 | 240 | 0.9 | 1.7 | 0.00 | 0.01 | 0.01 | 66 | 1010.6 |
| 20260509174104 | 87 | 217 | 0.9 | 2.6 | 0.00 | 0.01 | 0.01 | 69 | 1010.9 |
| 20260509173325 | 86 | 215 | 0.9 | 3.5 | 0.00 | 0.01 | 0.01 | 69 | 1011.1 |
| 20260509172821 | 85 | 180 | 0.9 | 4.3 | 0.00 | 0.01 | 0.01 | 70 | 1011.2 |
| 20260509172314 | 85 | 188 | 0.9 | 4.3 | 0.00 | 0.01 | 0.01 | 71 | 1011.1 |
| 20260509171809 | 84 | 170 | 0.0 | 4.3 | 0.00 | 0.01 | 0.01 | 73 | 1011.0 |
| 20260509171302 | 83 | 175 | 0.0 | 1.7 | 0.00 | 0.01 | 0.01 | 75 | 1010.9 |
| 20260509170756 | 83 | 175 | 0.9 | 4.3 | 0.00 | 0.01 | 0.01 | 76 | 1011.0 |
| 20260509170250 | 82 | 174 | 0.9 | 4.3 | 0.00 | 0.01 | 0.01 | 77 | 1011.1 |
| 20260509165744 | 82 | 184 | 0.9 | 3.5 | 0.00 | 0.01 | 0.01 | 79 | 1011.2 |
| 20260509165237 | 81 | 184 | 0.9 | 5.2 | 0.00 | 0.01 | 0.01 | 81 | 1011.3 |
| 20260509165003 | 80 | 168 | 0.9 | 5.2 | 0.00 | 0.01 | 0.01 | 82 | 1011.2 |
| 20260509164225 | 80 | 126 | 0.0 | 1.7 | 0.00 | 0.01 | 0.01 | 84 | 1011.3 |
| 20260509163720 | 80 | 126 | 0.9 | 2.6 | 0.00 | 0.01 | 0.01 | 86 | 1011.3 |
| 20260509163446 | 79 | 126 | 0.9 | 2.6 | 0.00 | 0.01 | 0.01 | 87 | 1011.3 |
| 20260509162708 | 79 | 117 | 0.9 | 2.6 | 0.00 | 0.01 | 0.01 | 87 | 1011.3 |
| 20260509162203 | 78 | 110 | 0.9 | 2.6 | 0.00 | 0.01 | 0.01 | 88 | 1011.3 |
| 20260509161656 | 78 | 252 | 0.0 | 0.9 | 0.00 | 0.01 | 0.01 | 89 | 1011.3 |
| 20260509161150 | 78 | 252 | 0.0 | 2.6 | 0.00 | 0.01 | 0.01 | 89 | 1011.2 |
| 20260509160917 | 78 | 251 | 0.0 | 2.6 | 0.00 | 0.01 | 0.01 | 90 | 1011.2 |
| 20260509160138 | 77 | 257 | 0.0 | 1.7 | 0.00 | 0.01 | 0.01 | 90 | 1011.2 |
| 20260509155632 | 77 | 184 | 0.0 | 0.9 | 0.00 | 0.01 | 0.01 | 90 | 1011.3 |
| 20260509155126 | 77 | 184 | 0.0 | 1.7 | 0.00 | 0.01 | 0.01 | 90 | 1011.1 |
| 20260509154621 | 76 | 182 | 0.9 | 4.3 | 0.00 | 0.01 | 0.01 | 90 | 1011.2 |
| 20260509154114 | 76 | 173 | 0.9 | 4.3 | 0.00 | 0.01 | 0.01 | 91 | 1011.2 |
| 20260509153609 | 76 | 158 | 1.7 | 6.1 | 0.00 | 0.01 | 0.01 | 90 | 1011.3 |
| 20260509153334 | 76 | 153 | 1.7 | 6.1 | 0.00 | 0.01 | 0.01 | 90 | 1011.3 |
| 20260509152556 | 76 | 172 | 1.7 | 6.1 | 0.00 | 0.01 | 0.01 | 91 | 1011.5 |
| 20260509152050 | 75 | 157 | 1.7 | 6.1 | 0.00 | 0.01 | 0.01 | 90 | 1011.6 |
| 20260509151544 | 75 | 113 | 2.6 | 7.0 | 0.00 | 0.01 | 0.01 | 90 | 1011.5 |
| 20260509151038 | 75 | 165 | 1.7 | 7.0 | 0.00 | 0.01 | 0.01 | 90 | 1011.3 |
| 20260509150533 | 74 | 174 | 1.7 | 4.3 | 0.00 | 0.01 | 0.01 | 90 | 1011.4 |
| 20260509150026 | 74 | 148 | 0.9 | 6.1 | 0.00 | 0.01 | 0.01 | 90 | 1011.6 |
| 20260509145521 | 74 | 143 | 1.7 | 6.1 | 0.00 | 0.01 | 0.01 | 90 | 1011.4 |
| 20260509145014 | 74 | 143 | 2.6 | 6.1 | 0.00 | 0.01 | 0.01 | 90 | 1011.3 |
| 20260509144509 | 74 | 142 | 2.6 | 6.1 | 0.00 | 0.01 | 0.01 | 90 | 1011.1 |
| 20260509144004 | 74 | 149 | 2.6 | 6.1 | 0.00 | 0.01 | 0.01 | 90 | 1011.1 |
| 20260509143958 | 74 | 159 | 1.7 | 6.1 | 0.00 | 0.01 | 0.01 | 90 | 1011.1 |
| 20260509142951 | 74 | 153 | 0.9 | 3.5 | 0.00 | 0.01 | 0.01 | 90 | 1010.9 |
| 20260509142444 | 74 | 142 | 1.7 | 5.2 | 0.00 | 0.01 | 0.01 | 90 | 1010.8 |
| 20260509142209 | 74 | 140 | 3.5 | 7.8 | 0.00 | 0.01 | 0.01 | 90 | 1010.9 |
| 20260509141432 | 74 | 119 | 3.5 | 7.8 | 0.00 | 0.01 | 0.01 | 90 | 1010.7 |
| 20260509140926 | 74 | 140 | 1.7 | 6.1 | 0.00 | 0.01 | 0.01 | 90 | 1010.7 |
| 20260509140420 | 74 | 142 | 1.7 | 6.1 | 0.00 | 0.01 | 0.01 | 90 | 1010.7 |
| 20260509140146 | 74 | 165 | 0.9 | 6.1 | 0.00 | 0.01 | 0.01 | 90 | 1010.7 |
| 20260509135409 | 74 | 317 | 0.0 | 2.6 | 0.00 | 0.01 | 0.01 | 90 | 1010.7 |
| 20260509134902 | 74 | 320 | 0.0 | 0.0 | 0.00 | 0.01 | 0.01 | 90 | 1010.9 |
| 20260509134356 | 74 | 320 | 0.0 | 0.9 | 0.00 | 0.01 | 0.01 | 90 | 1011.0 |
| 20260509133850 | 74 | 320 | 0.0 | 1.7 | 0.00 | 0.01 | 0.01 | 90 | 1011.1 |
| 20260509133345 | 74 | 320 | 0.0 | 1.7 | 0.00 | 0.01 | 0.01 | 90 | 1011.1 |
| 20260509132846 | 74 | 320 | 0.0 | 0.0 | 0.00 | 0.01 | 0.01 | 90 | 1011.0 |
| 20260509132346 | 73 | 320 | 0.0 | 3.5 | 0.00 | 0.01 | 0.01 | 90 | 1011.1 |
| 20260509131846 | 73 | 320 | 0.0 | 3.5 | 0.00 | 0.01 | 0.01 | 90 | 1011.2 |
| 20260509131345 | 73 | 67 | 0.0 | 0.0 | 0.00 | 0.01 | 0.01 | 90 | 1011.3 |
| 20260509130844 | 73 | 69 | 0.0 | 0.0 | 0.00 | 0.01 | 0.01 | 90 | 1011.1 |
| 20260509130350 | 73 | 78 | 0.0 | 0.0 | 0.00 | 0.01 | 0.01 | 89 | 1010.9 |
| 20260509130346 | 73 | 70 | 0.0 | 0.0 | 0.00 | 0.01 | 0.01 | 90 | 1010.9 |
| 20260509125617 | 73 | 78 | 0.0 | 0.0 | 0.00 | 0.01 | 0.01 | 89 | 1010.8 |
| 20260509124846 | 73 | 78 | 0.0 | 0.0 | 0.00 | 0.01 | 0.01 | 89 | 1010.8 |
| 20260509124345 | 73 | 78 | 0.0 | 0.0 | 0.00 | 0.01 | 0.01 | 89 | 1010.7 |
| 20260509123843 | 73 | 78 | 0.0 | 0.0 | 0.00 | 0.01 | 0.01 | 89 | 1010.8 |
| 20260509123344 | 73 | 78 | 0.0 | 0.0 | 0.00 | 0.01 | 0.01 | 89 | 1011.0 |
| 20260509122842 | 73 | 78 | 0.0 | 0.0 | 0.00 | 0.01 | 0.01 | 89 | 1010.8 |
| 20260509122344 | 73 | 78 | 0.0 | 0.0 | 0.00 | 0.01 | 0.01 | 89 | 1010.8 |
| 20260509121840 | 73 | 78 | 0.0 | 0.0 | 0.00 | 0.01 | 0.01 | 89 | 1010.8 |
| 20260509121339 | 73 | 78 | 0.0 | 2.6 | 0.00 | 0.01 | 0.01 | 89 | 1011.1 |
| 20260509121109 | 73 | 78 | 0.9 | 2.6 | 0.00 | 0.01 | 0.01 | 89 | 1011.0 |
| 20260509120339 | 73 | 78 | 0.9 | 2.6 | 0.00 | 0.01 | 0.01 | 89 | 1011.0 |
| 20260509115839 | 73 | 0 | 0.0 | 0.9 | 0.00 | 0.01 | 0.01 | 89 | 1011.1 |
| 20260509115344 | 73 | 0 | 0.0 | 1.7 | 0.00 | 0.01 | 0.01 | 89 | 1010.9 |
| 20260509115339 | 73 | 0 | 0.0 | 0.9 | 0.00 | 0.01 | 0.01 | 89 | 1011.0 |
| 20260509114609 | 73 | 0 | 0.9 | 3.5 | 0.00 | 0.01 | 0.01 | 89 | 1011.2 |
| 20260509113840 | 73 | 0 | 0.9 | 3.5 | 0.00 | 0.01 | 0.01 | 89 | 1011.3 |
| 20260509113339 | 73 | 0 | 0.0 | 3.5 | 0.00 | 0.01 | 0.01 | 89 | 1011.5 |
| 20260509112840 | 73 | 0 | 0.0 | 3.5 | 0.00 | 0.01 | 0.01 | 89 | 1011.5 |
| 20260509112338 | 73 | 0 | 0.0 | 0.9 | 0.00 | 0.01 | 0.01 | 89 | 1011.6 |
| 20260509111840 | 73 | 0 | 0.0 | 0.0 | 0.00 | 0.01 | 0.01 | 89 | 1011.7 |
| 20260509111339 | 73 | 0 | 0.0 | 2.6 | 0.00 | 0.01 | 0.01 | 89 | 1011.8 |
| 20260509110840 | 73 | 0 | 0.9 | 4.3 | 0.00 | 0.01 | 0.01 | 89 | 1011.8 |
| 20260509110338 | 73 | 0 | 0.9 | 4.3 | 0.00 | 0.01 | 0.01 | 89 | 1011.8 |
| 20260509105837 | 73 | 11 | 1.7 | 4.3 | 0.00 | 0.01 | 0.01 | 89 | 1012.0 |
| 20260509105338 | 73 | 11 | 1.7 | 4.3 | 0.00 | 0.01 | 0.01 | 88 | 1011.8 |
| 20260509104832 | 73 | 351 | 1.7 | 4.3 | 0.00 | 0.01 | 0.01 | 88 | 1011.9 |
| 20260509104333 | 73 | 12 | 1.7 | 4.3 | 0.00 | 0.01 | 0.01 | 88 | 1012.0 |
| 20260509103832 | 73 | 10 | 1.7 | 4.3 | 0.00 | 0.01 | 0.01 | 88 | 1012.0 |
| 20260509103333 | 73 | 12 | 0.9 | 4.3 | 0.00 | 0.01 | 0.01 | 88 | 1012.0 |
| 20260509102834 | 73 | 22 | 0.0 | 2.6 | 0.00 | 0.01 | 0.01 | 88 | 1011.8 |
| 20260509102334 | 73 | 24 | 0.0 | 0.0 | 0.00 | 0.01 | 0.01 | 88 | 1011.8 |
| 20260509101831 | 73 | 24 | 0.0 | 0.0 | 0.00 | 0.01 | 0.01 | 88 | 1011.7 |
| 20260509101602 | 73 | 24 | 0.0 | 0.0 | 0.00 | 0.01 | 0.01 | 88 | 1011.5 |
| 20260509100827 | 73 | 24 | 0.0 | 0.0 | 0.00 | 0.01 | 0.01 | 88 | 1011.2 |
| 20260509100326 | 73 | 24 | 0.0 | 0.0 | 0.00 | 0.01 | 0.01 | 88 | 1010.8 |
| 20260509095823 | 73 | 24 | 0.0 | 0.0 | 0.00 | 0.01 | 0.01 | 88 | 1010.5 |
| 20260509095553 | 73 | 24 | 0.0 | 0.0 | 0.01 | 0.01 | 0.01 | 88 | 1010.5 |
| 20260509094820 | 73 | 24 | 0.0 | 0.0 | 0.01 | 0.01 | 0.01 | 88 | 1010.5 |
| 20260509094548 | 73 | 24 | 0.0 | 0.0 | 0.01 | 0.01 | 0.01 | 88 | 1010.6 |
| 20260509093816 | 73 | 24 | 0.0 | 0.0 | 0.01 | 0.01 | 0.01 | 88 | 1010.6 |
| 20260509093316 | 73 | 24 | 0.0 | 0.0 | 0.01 | 0.01 | 0.01 | 88 | 1010.6 |
| 20260509092823 | 73 | 24 | 0.0 | 0.0 | 0.01 | 0.01 | 0.01 | 88 | 1010.6 |
| 20260509092817 | 73 | 24 | 0.0 | 0.0 | 0.01 | 0.01 | 0.01 | 88 | 1010.7 |
| 20260509091815 | 73 | 24 | 0.0 | 0.0 | 0.01 | 0.01 | 0.01 | 88 | 1010.5 |
| 20260509091545 | 73 | 24 | 0.0 | 0.0 | 0.01 | 0.01 | 0.01 | 88 | 1010.4 |
| 20260509091041 | 73 | 24 | 0.0 | 0.0 | 0.01 | 0.01 | 0.01 | 88 | 1010.3 |
| 20260509090303 | 73 | 24 | 0.0 | 0.0 | 0.01 | 0.01 | 0.01 | 88 | 1010.4 |
| 20260509085757 | 73 | 24 | 0.0 | 0.0 | 0.01 | 0.01 | 0.01 | 88 | 1010.4 |
| 20260509085251 | 73 | 24 | 0.0 | 0.0 | 0.00 | 0.00 | 0.00 | 88 | 1010.5 |
| 20260509084745 | 73 | 24 | 0.0 | 0.0 | 0.00 | 0.00 | 0.00 | 88 | 1010.5 |
| 20260509084239 | 73 | 24 | 0.0 | 1.7 | 0.00 | 0.00 | 0.00 | 88 | 1010.6 |
| 20260509083733 | 73 | 24 | 0.9 | 2.6 | 0.00 | 0.00 | 0.00 | 88 | 1010.6 |
| 20260509083227 | 73 | 24 | 0.9 | 3.5 | 0.00 | 0.00 | 0.00 | 88 | 1010.8 |
| 20260509082721 | 73 | 24 | 1.7 | 3.5 | 0.00 | 0.00 | 0.00 | 88 | 1010.9 |
| 20260509082215 | 73 | 17 | 0.9 | 3.5 | 0.00 | 0.00 | 0.00 | 88 | 1010.9 |
| 20260509081709 | 73 | 16 | 0.9 | 3.5 | 0.00 | 0.00 | 0.00 | 88 | 1011.1 |
| 20260509081435 | 73 | 15 | 0.9 | 3.5 | 0.00 | 0.00 | 0.00 | 87 | 1011.2 |
| 20260509080658 | 73 | 14 | 1.7 | 3.5 | 0.00 | 0.00 | 0.00 | 87 | 1011.1 |
| 20260509080152 | 73 | 36 | 0.9 | 3.5 | 0.00 | 0.00 | 0.00 | 87 | 1010.8 |
| 20260509075645 | 73 | 109 | 0.0 | 2.6 | 0.00 | 0.00 | 0.00 | 87 | 1010.7 |
| 20260509075139 | 73 | 134 | 0.0 | 0.0 | 0.00 | 0.00 | 0.00 | 87 | 1010.8 |
| 20260509074634 | 73 | 134 | 0.9 | 2.6 | 0.00 | 0.00 | 0.00 | 87 | 1010.6 |
| 20260509074127 | 73 | 135 | 0.9 | 2.6 | 0.00 | 0.00 | 0.00 | 87 | 1010.7 |
| 20260509073621 | 73 | 150 | 0.0 | 1.7 | 0.00 | 0.00 | 0.00 | 87 | 1010.8 |
| 20260509073114 | 73 | 150 | 0.0 | 0.9 | 0.00 | 0.00 | 0.00 | 87 | 1010.8 |
| 20260509072609 | 73 | 150 | 0.0 | 0.9 | 0.00 | 0.00 | 0.00 | 87 | 1010.8 |
| 20260509072102 | 73 | 150 | 0.0 | 0.0 | 0.00 | 0.00 | 0.00 | 87 | 1010.9 |
| 20260509071557 | 73 | 150 | 0.0 | 0.9 | 0.00 | 0.00 | 0.00 | 87 | 1010.9 |
| 20260509071051 | 73 | 150 | 0.0 | 1.7 | 0.00 | 0.00 | 0.00 | 87 | 1010.9 |
| 20260509070545 | 73 | 150 | 0.0 | 1.7 | 0.00 | 0.00 | 0.00 | 87 | 1011.0 |
| 20260509070039 | 73 | 150 | 0.0 | 0.9 | 0.00 | 0.00 | 0.00 | 87 | 1011.0 |
| 20260509065533 | 73 | 150 | 0.0 | 1.7 | 0.00 | 0.00 | 0.00 | 87 | 1011.0 |
| 20260509065027 | 73 | 150 | 0.9 | 4.3 | 0.00 | 0.00 | 0.00 | 87 | 1011.0 |
| 20260509064521 | 73 | 150 | 0.9 | 4.3 | 0.00 | 0.00 | 0.00 | 87 | 1010.8 |
| 20260509064015 | 74 | 146 | 0.9 | 3.5 | 0.00 | 0.00 | 0.00 | 87 | 1010.6 |
| 20260509063509 | 73 | 145 | 1.7 | 4.3 | 0.00 | 0.00 | 0.00 | 86 | 1010.5 |
| 20260509063003 | 74 | 125 | 0.9 | 4.3 | 0.00 | 0.00 | 0.00 | 86 | 1010.6 |
| 20260509062457 | 74 | 177 | 0.9 | 6.1 | 0.00 | 0.00 | 0.00 | 86 | 1010.6 |
| 20260509061951 | 74 | 132 | 1.7 | 6.1 | 0.00 | 0.00 | 0.00 | 86 | 1010.7 |
| 20260509061451 | 74 | 154 | 1.7 | 5.2 | 0.00 | 0.00 | 0.00 | 86 | 1010.6 |